This demonstration page uses our WeatherBlox Daily Observations layout. Learn more.

Left ArrowRight Arrow

39.01783, -85.05884

Hourly Observations for August 23, 2015

Temp ( °F °C ) Dew Point ( °F °C ) Humidity (%) Winds ( mph kmh ) Pressure ( in mb ) Visibility ( mi km ) Precip ( " mm )
12:52 am 00:52 Mostly Cloudy 70 21.1 58 14.4 66 66 N N/A 30.02 1017 10 16.0934 N/A
1:52 am 01:52 Mostly Cloudy 67 19.4 59 15 76 76 N N/A 30.02 1017 10 16.0934 N/A
2:52 am 02:52 Mostly Clear 67 19.4 59 15 76 76 E 3 6 30.01 1016 10 16.0934 N/A
3:52 am 03:52 Partly Cloudy 66 18.9 59 15 78 78 ESE 3 6 29.98 1015 10 16.0934 N/A
4:52 am 04:52 Mostly Cloudy 66 18.9 59 15 78 78 ESE 5 7 29.96 1015 10 16.0934 N/A
5:52 am 05:52 Mostly Cloudy 65 18.3 59 15 81 81 N N/A 29.97 1015 10 16.0934 N/A
6:52 am 06:52 Partly Cloudy 65 18.3 59 15 81 81 ESE 3 6 29.97 1015 10 16.0934 N/A
7:52 am 07:52 Mostly Sunny 66 18.9 60 15.6 81 81 N N/A 29.98 1015 10 16.0934 N/A
8:52 am 08:52 Mostly Sunny 69 20.6 61 16.1 76 76 S 3 6 29.99 1016 10 16.0934 N/A
9:52 am 09:52 Partly Cloudy 74 23.3 64 17.8 71 71 WSW 5 7 29.98 1015 10 16.0934 N/A
10:52 am 10:52 Partly Cloudy 78 25.6 64 17.8 62 62 SW 8 13 29.96 1015 10 16.0934 N/A
11:52 am 11:52 Mostly Sunny 81 27.2 64 17.8 57 57 WSW 6 9 29.95 1014 10 16.0934 N/A
12:52 pm 12:52 Partly Cloudy 83 28.3 65 18.3 55 55 VRB 5 7 29.93 1014 10 16.0934 N/A
1:52 pm 13:52 Partly Cloudy 84 28.9 66 18.9 55 55 W 9 15 29.93 1014 10 16.0934 N/A
2:52 pm 14:52 Partly Cloudy 85 29.4 67 19.4 55 55 W 8 13 29.91 1013 10 16.0934 N/A
3:52 pm 15:52 Mostly Cloudy 85 29.4 68 20 57 57 SSW 8 13 29.9 1012 10 16.0934 N/A
4:52 pm 16:52 Mostly Cloudy 85 29.4 67 19.4 55 55 SW 10 17 29.88 1012 10 16.0934 N/A
5:52 pm 17:52 Partly Cloudy 83 28.3 67 19.4 59 59 SW 6 9 29.88 1012 10 16.0934 N/A
6:52 pm 18:52 Mostly Cloudy 82 27.8 68 20 63 63 SW 3 6 29.87 1011 10 16.0934 N/A
7:52 pm 19:52 Mostly Cloudy 79 26.1 69 20.6 72 72 SW 3 6 29.86 1011 10 16.0934 N/A
10:52 pm 22:52 Mostly Cloudy 77 25 69 20.6 77 77 W 7 11 29.89 1012 10 16.0934 N/A
11:52 pm 23:52 Mostly Cloudy 74 23.3 65 18.3 74 74 NNW 21 33 29.91 1013 10 16.0934 N/A

Powered by AerisWeather